Wind_Speed
8 8 8 6 5 4 3 3 2 2 2 3 2 2 2 4 3 4 4 10 11 11 13 12 13 8 7 6 5 5 5 5 5 6 6 7 6 7 8 8 8 7 8
7 7 6 4 3 3 3 2 1 2 1 1 3 3 3 3 5 7 7 9 12 11 10 10 9 9 7 7 8 7 6 5 6 8 9 9 8 8 7 5 4 5 6
7 8 5 4 3 4 4 1 2 3 3 3 4 4 3 4 4 6 7 8 9 14 10 6 5 7 6 8 7 8 8 7 8 9 9 10 11 8 7 3 2 2 4
8 5 3 2 1 1 1 1 2 2 4 3 2 3 4 5 8 8 7 9 8 7 7 3 5 5 5 6 6 7 7 7 8 9 10 11 12 9 7 3 2 1 2
7 5 3 1 1 1 1 1 2 3 4 3 5 6 7 7 7 7 9 9 8 6 4 4 6 7 5 4 4 6 6 6 7 8 9 10 11 11 9 6 3 1 1
6 5 2 1 2 2 2 2 0 3 4 6 6 8 9 8 8 5 6 6 4 7 4 6 5 5 6 4 4 5 6 7 7 7 8 9 9 9 10 9 6 5 3
5 5 3 2 2 2 4 3 3 5 4 8 8 8 9 7 4 3 3 4 4 4 5 5 6 6 7 9 5 5 6 7 7 6 8 9 9 8 9 9 9 7 6
5 5 4 4 2 3 6 7 6 4 6 8 7 9 6 0 5 3 5 5 3 3 2 3 4 6 6 5 6 5 6 7 8 7 7 8 8 8 7 8 9 8 7
5 4 3 5 6 2 2 5 3 4 3 6 7 4 6 7 4 1 3 5 6 3 2 3 1 5 6 4 7 7 6 7 9 10 11 10 9 7 6 5 6 7 7
6 4 2 1 7 5 4 2 1 0 2 4 5 4 3 4 5 3 1 4 5 5 3 3 2 1 6 4 7 9 7 8 11 13 11 12 12 9 6 5 4 4 4
6 4 2 1 4 4 4 2 0 1 3 2 4 4 5 4 4 4 7 7 3 4 3 4 2 1 3 4 4 10 9 9 11 12 10 11 11 9 8 5 3 2 3
6 7 4 3 3 3 3 3 3 3 2 4 3 3 4 4 5 4 6 6 5 3 3 4 3 1 1 2 6 10 11 10 12 13 12 12 9 7 5 4 5 3 1
7 8 8 7 5 4 3 3 5 5 4 3 4 3 4 4 5 5 5 6 6 5 4 4 4 3 4 1 7 10 12 12 13 12 14 13 11 9 7 6 4 5 4
8 10 10 9 8 7 4 4 2 3 7 5 5 6 4 6 6 7 5 6 7 4 5 3 5 3 4 3 7 10 13 13 12 11 11 12 10 10 10 8 3 5 4
11 10 11 10 9 9 9 8 7 4 7 6 7 8 6 6 7 7 7 6 5 8 8 2 4 8 5 7 6 7 12 11 10 10 10 10 11 11 9 8 3 2 5
12 12 11 11 9 10 9 10 8 8 8 7 6 7 6 7 9 9 9 7 9 8 9 6 5 8 7 7 11 11 12 11 9 10 9 9 10 11 9 6 4 2 4
15 12 12 12 11 9 10 11 10 8 9 9 7 7 6 7 5 8 10 5 9 8 8 8 8 8 10 8 8 10 12 10 12 11 10 8 10 9 8 6 4 4 4
16 16 13 13 12 10 10 10 9 9 9 8 7 7 6 6 8 8 5 9 8 8 8 9 9 10 9 7 8 10 8 6 8 11 11 10 10 8 8 7 6 5 5
19 14 13 16 13 11 12 11 12 9 9 9 9 9 9 7 8 6 7 6 6 7 9 9 10 9 11 12 8 9 9 7 7 10 10 10 10 10 9 10 9 9 8
18 17 15 14 14 13 12 12 12 11 11 10 10 9 9 10 10 9 8 9 8 8 9 10 9 11 9 11 8 7 8 6 4 6 10 11 12 12 13 12 12 11 11
17 19 18 20 18 15 14 13 13 11 12 12 11 10 10 12 11 12 13 12 14 12 10 12 9 9 10 6 10 10 8 8 10 7 6 5 7 6 11 12 12 12 12
20 19 18 19 18 17 19 17 15 15 14 13 11 12 12 12 14 14 15 16 16 14 12 12 11 12 10 8 9 8 10 9 8 9 7 11 12 13 14 14 14 15 12
22 22 20 19 19 19 22 21 19 18 16 15 13 12 12 11 13 14 15 15 16 16 17 17 14 14 11 12 10 9 9 10 10 11 10 14 14 14 13 10 11 11 11
22 22 20 18 18 19 22 20 19 17 17 16 16 17 16 16 17 14 12 15 16 16 12 7 10 10 10 10 10 9 8 7 7 6 4 4 4 5 6 8 7 9 9
23 22 19 18 19 20 17 18 18 19 19 20 20 20 18 14 18 12 11 14 14 11 9 8 8 7 6 5 4 3 2 3 4 4 4 3 4 4 5 4 5 6 6
23 26 25 23 22 20 18 17 17 17 15 14 13 13 10 10 12 9 9 11 10 7 3 0 2 4 5 5 4 3 2 1 2 2 3 1 4 5 4 4 7 7 6
Wind_Direction
143 126 131 117 123 99 125 111 99 97 47 32 16 325 281 268 278 313 323 328 341 336 337 341 353 25 50 51 60 57 47 40 35 32 9 339 334 319 308 293 274 254 247
147 130 111 110 86 112 142 126 125 105 11 24 336 339 328 289 293 311 312 326 339 334 336 347 25 37 62 60 55 47 42 50 55 42 23 359 357 335 321 314 295 262 244
155 126 117 92 92 140 155 38 354 314 311 312 317 345 323 327 325 325 331 328 332 336 344 345 29 35 60 65 46 47 47 36 37 35 26 16 16 360 339 323 289 238 234
165 142 114 93 117 100 70 342 351 325 327 321 296 305 302 319 319 327 334 337 333 342 354 34 32 39 56 60 47 35 33 30 28 29 22 14 14 16 10 1 358 309 278
161 167 176 320 20 321 356 7 327 28 355 333 317 315 304 298 308 310 327 343 337 25 48 38 41 41 55 54 47 23 16 11 11 20 18 14 15 18 24 28 26 9 310
181 182 205 296 276 301 281 321 353 358 352 333 317 305 304 299 299 313 337 354 353 40 44 55 46 15 34 28 26 4 360 1 353 3 7 4 12 18 21 25 31 34 33
202 186 195 281 246 226 225 246 276 319 324 333 332 327 318 321 322 332 357 7 348 27 48 51 58 65 2 23 12 336 354 357 2 360 5 358 0 12 18 26 32 34 37
201 209 242 235 232 242 258 233 248 300 321 335 330 321 330 273 49 43 30 24 12 25 38 45 49 45 61 43 356 1 355 357 11 14 7 4 353 359 11 19 23 35 43
214 226 271 250 232 309 243 223 255 299 319 338 347 0 330 10 330 352 14 8 29 16 16 9 58 34 28 44 27 355 347 355 3 0 355 353 352 351 354 11 26 29 40
216 250 304 313 206 196 199 231 257 248 337 328 338 353 341 6 353 326 253 334 11 14 26 7 325 10 3 40 16 17 8 4 1 1 358 355 352 348 346 345 7 26 39
223 226 209 130 158 166 198 191 58 320 331 358 325 324 313 315 328 326 320 340 340 16 9 14 339 174 358 34 4 7 8 357 354 353 358 358 357 354 348 337 323 1 30
227 220 214 208 188 193 217 248 266 299 265 293 305 311 304 308 313 307 306 307 320 351 344 357 21 231 330 339 347 357 2 356 355 356 359 359 359 357 357 333 296 272 285
214 229 222 218 226 238 259 235 272 262 293 280 285 270 285 305 302 292 299 306 300 310 309 297 340 304 295 327 319 347 357 352 356 0 2 3 5 357 344 327 275 237 259
223 219 220 221 230 231 244 271 290 265 272 288 279 271 264 273 283 296 285 299 309 299 294 281 314 329 309 306 310 330 342 344 345 355 356 4 7 5 356 346 296 213 215
224 227 225 219 227 240 249 252 264 289 282 289 277 268 282 278 282 266 274 265 283 306 316 325 322 307 308 304 299 313 321 336 337 342 349 356 359 359 0 1 359 226 221
230 230 231 225 230 241 251 258 249 276 271 282 288 264 269 292 279 292 288 259 268 278 289 319 317 301 283 270 290 307 314 320 327 327 320 335 340 341 347 349 348 286 252
241 244 244 243 245 257 256 258 261 260 272 267 272 278 282 278 281 304 294 288 273 274 269 296 311 309 309 299 280 305 310 318 320 325 316 311 326 333 339 337 321 296 276
241 246 252 245 250 247 252 268 268 257 260 264 262 256 264 276 282 302 291 282 279 281 283 286 304 305 308 293 300 296 293 280 293 316 315 305 315 314 325 326 317 310 299
243 240 246 248 245 255 263 267 278 268 264 260 252 251 260 265 271 261 273 274 291 288 290 294 295 300 297 302 297 304 301 277 289 300 298 297 299 296 303 305 296 299 302
237 234 239 246 246 251 257 261 262 268 262 269 263 252 260 263 267 262 259 264 287 281 286 286 295 299 296 283 301 294 292 289 265 279 304 299 293 283 282 294 284 288 294
240 238 234 248 249 249 252 254 263 265 264 260 267 270 275 263 274 275 277 271 281 278 281 287 298 295 298 289 296 287 289 282 277 263 232 297 310 304 293 284 278 285 289
235 237 237 238 236 238 248 258 256 265 262 268 268 266 267 271 274 282 281 276 275 281 293 293 291 274 278 285 296 293 292 287 289 258 243 249 250 257 276 290 289 280 276
232 237 240 237 234 236 245 251 247 255 259 265 262 261 265 266 291 289 283 275 275 281 285 286 281 276 284 284 291 303 292 286 277 270 264 242 256 271 283 303 327 330 322
225 225 232 232 230 234 244 245 245 248 256 257 259 264 270 268 278 274 272 280 287 287 285 268 273 276 276 288 297 294 290 297 290 287 309 303 316 337 347 337 337 326 322
225 222 220 221 222 239 241 241 243 245 254 265 264 265 266 263 272 268 263 278 279 278 280 276 279 289 307 324 341 334 334 313 291 304 316 311 324 328 335 352 354 343 338
220 225 224 222 230 233 237 239 241 252 258 252 257 272 271 269 281 276 259 266 266 264 249 141 49 38 16 4 7 353 326 279 265 304 334 350 355 7 3 354 344 348 356
Height
1585 1586 1585 1587 1589 1590 1590 1590 1590 1591 1590 1591 1591 1590 1590 1590 1589 1589 1589 1586 1584 1582 1580 1578 1576 1573 1573 1573 1573 1571 1570 1569 1567 1566 1564 1562 1561 1559 1558 1557 1556 1555 1555
1586 1586 1586 1589 1590 1590 1590 1590 1590 1591 1591 1592 1591 1590 1589 1590 1589 1587 1588 1586 1583 1581 1579 1578 1576 1574 1574 1574 1573 1572 1570 1569 1568 1566 1565 1562 1560 1559 1557 1555 1554 1554 1554
1585 1585 1588 1590 1590 1589 1590 1591 1591 1591 1592 1592 1591 1590 1589 1588 1588 1586 1586 1586 1585 1580 1578 1577 1576 1575 1575 1574 1574 1573 1572 1570 1569 1567 1566 1564 1562 1560 1557 1555 1554 1554 1553
1585 1587 1589 1590 1590 1590 1591 1592 1592 1592 1591 1592 1591 1591 1589 1588 1586 1585 1585 1583 1583 1581 1579 1578 1576 1576 1576 1574 1575 1574 1573 1571 1570 1568 1566 1565 1563 1560 1558 1556 1554 1553 1552
1585 1587 1588 1589 1589 1590 1591 1591 1592 1591 1591 1591 1591 1590 1589 1588 1586 1586 1583 1581 1582 1579 1580 1578 1577 1576 1576 1576 1575 1574 1573 1571 1570 1569 1567 1565 1563 1561 1559 1557 1555 1553 1551
1585 1587 1588 1589 1589 1589 1591 1591 1590 1590 1590 1590 1590 1590 1587 1586 1584 1584 1584 1583 1580 1579 1581 1578 1578 1577 1576 1576 1575 1574 1573 1571 1570 1568 1567 1566 1564 1561 1559 1557 1555 1554 1552
1585 1586 1588 1588 1588 1588 1589 1589 1590 1590 1591 1590 1589 1588 1587 1585 1584 1583 1584 1584 1581 1580 1580 1579 1580 1579 1577 1576 1574 1574 1573 1572 1570 1568 1566 1565 1564 1562 1560 1558 1556 1554 1553
1585 1586 1586 1586 1586 1587 1587 1588 1588 1590 1590 1589 1589 1588 1585 1585 1585 1585 1584 1583 1582 1582 1581 1579 1579 1577 1578 1578 1575 1574 1573 1571 1570 1567 1566 1565 1563 1562 1560 1558 1557 1555 1554
1584 1584 1584 1584 1585 1585 1587 1587 1588 1589 1590 1590 1588 1589 1586 1585 1585 1585 1585 1584 1582 1582 1581 1580 1579 1577 1577 1577 1576 1573 1572 1571 1569 1567 1565 1564 1563 1561 1560 1559 1558 1557 1555
1583 1583 1583 1582 1583 1585 1586 1587 1588 1588 1589 1591 1590 1589 1588 1588 1587 1582 1583 1584 1584 1582 1581 1581 1580 1578 1577 1578 1575 1574 1572 1571 1569 1567 1565 1563 1561 1560 1559 1559 1558 1558 1557
1581 1581 1582 1582 1583 1585 1586 1586 1587 1587 1589 1590 1590 1590 1589 1589 1588 1588 1584 1583 1581 1582 1582 1581 1580 1579 1577 1577 1576 1573 1572 1571 1569 1566 1564 1562 1560 1559 1558 1558 1558 1558 1558
1580 1580 1581 1582 1583 1584 1585 1586 1586 1586 1588 1588 1589 1589 1589 1589 1588 1588 1586 1584 1583 1581 1582 1581 1579 1579 1578 1577 1574 1573 1572 1570 1569 1566 1564 1562 1560 1558 1557 1557 1558 1558 1558
1579 1579 1580 1581 1582 1583 1584 1585 1585 1586 1587 1587 1588 1588 1589 1588 1588 1587 1586 1584 1583 1582 1581 1580 1580 1579 1577 1577 1574 1573 1571 1570 1568 1566 1564 1562 1560 1559 1558 1557 1556 1557 1557
1578 1578 1578 1579 1580 1581 1583 1584 1585 1586 1586 1587 1586 1586 1587 1587 1587 1586 1586 1585 1582 1580 1579 1579 1579 1578 1577 1575 1573 1572 1569 1569 1568 1566 1564 1562 1561 1559 1557 1556 1555 1555 1557
1575 1575 1576 1577 1579 1580 1581 1582 1582 1583 1584 1585 1585 1584 1584 1585 1584 1584 1583 1583 1583 1581 1578 1577 1578 1576 1576 1575 1572 1571 1569 1568 1566 1565 1564 1563 1561 1559 1558 1556 1555 1555 1556
1571 1572 1574 1576 1577 1578 1579 1580 1581 1581 1582 1583 1583 1582 1582 1583 1583 1581 1580 1581 1581 1580 1579 1576 1576 1575 1574 1572 1569 1569 1567 1566 1565 1564 1563 1562 1561 1559 1558 1556 1556 1555 1555
1568 1569 1571 1573 1574 1575 1576 1577 1579 1579 1579 1580 1581 1581 1581 1581 1581 1580 1578 1578 1577 1576 1576 1575 1574 1573 1570 1569 1569 1566 1565 1564 1562 1562 1561 1560 1559 1558 1557 1555 1555 1554 1554
1564 1566 1567 1570 1571 1574 1575 1575 1576 1577 1578 1578 1578 1579 1579 1580 1579 1578 1578 1577 1577 1575 1574 1573 1572 1570 1567 1566 1565 1565 1564 1564 1562 1561 1559 1558 1558 1557 1556 1555 1554 1553 1553
1560 1563 1564 1566 1568 1570 1572 1573 1573 1574 1575 1575 1575 1575 1575 1576 1575 1576 1575 1575 1575 1574 1572 1571 1569 1568 1567 1564 1563 1562 1561 1561 1559 1558 1557 1556 1556 1555 1554 1553 1553 1552 1552
1555 1557 1560 1563 1565 1566 1568 1570 1570 1571 1571 1572 1571 1571 1573 1573 1572 1571 1572 1572 1571 1570 1569 1567 1566 1565 1564 1561 1561 1561 1560 1559 1560 1558 1554 1553 1553 1552 1551 1550 1550 1549 1549
1550 1552 1554 1556 1559 1562 1564 1566 1566 1567 1567 1568 1568 1569 1570 1568 1569 1568 1568 1568 1566 1565 1564 1563 1562 1562 1561 1558 1558 1557 1558 1557 1555 1555 1555 1552 1551 1550 1547 1547 1547 1547 1548
1545 1547 1549 1551 1553 1556 1558 1560 1561 1562 1564 1564 1565 1566 1566 1565 1564 1564 1564 1563 1563 1562 1561 1560 1560 1559 1557 1556 1556 1555 1553 1552 1551 1550 1551 1549 1548 1546 1545 1545 1544 1544 1544
1540 1541 1544 1546 1548 1550 1550 1553 1556 1558 1559 1560 1561 1562 1562 1562 1560 1560 1560 1559 1558 1558 1557 1556 1555 1555 1554 1553 1552 1551 1550 1549 1549 1548 1547 1545 1545 1543 1542 1540 1541 1541 1541
1533 1536 1537 1539 1542 1543 1544 1547 1550 1552 1554 1555 1556 1557 1557 1557 1556 1557 1556 1555 1554 1553 1552 1551 1551 1551 1550 1550 1549 1548 1547 1546 1546 1545 1544 1544 1543 1543 1542 1540 1540 1539 1538
1525 1528 1531 1533 1535 1536 1539 1541 1544 1546 1548 1550 1551 1551 1552 1552 1551 1552 1553 1552 1550 1549 1549 1549 1548 1548 1547 1546 1545 1545 1545 1545 1545 1545 1544 1543 1543 1542 1540 1539 1539 1539 1538
1519 1521 1523 1525 1528 1530 1532 1534 1537 1540 1542 1543 1545 1546 1546 1547 1548 1549 1550 1549 1548 1548 1548 1548 1548 1548 1547 1546 1545 1544 1544 1544 1544 1544 1543 1544 1543 1542 1541 1540 1539 1537 1536